Weather in Valdemārpils

Latvia     57°22′09″N   22°35′32″E
temp.,
°C
wind,
m/s
gust,
m/s
humid.,
%
clouds,
%
prec.,
mm/h
press.,
hPa
HPBL,
m
17 may, mon
mon1700:00+11ese2691100 0.6 1005152
03:00+13ese41394100 0.9 1004554
06:00+13se41098100 3.4 1002511
09:00+13ssw3796100 4.5 1004501
12:00+14s3686100 0.3 1005652
15:00+19sw354967 0.8 10052011
18:00+15n367110 0.0 1005327
21:00+12nne2591100 0.0 1005141
18 may, tue
tue1800:00+8ene2299100 0.0 100657
03:00+8ene2399100 0.0 100691
06:00+8ne1298100 0.0 100661
09:00+13nne2366100 0.0 1006338
12:00+16nne3353100 0.0 1006923
15:00+18ne334485 0.0 10061206
18:00+16nne3450100 0.0 1005776
21:00+11n247898 0.0 100666
19 may, wed
wed1900:00+8nnw2488100 0.0 100676
03:00+7nnw2488100 0.0 100680
06:00+7nw258695 0.0 1006112
09:00+13nnw366399 0.0 1006491
12:00+17nw344976 0.0 10071399
15:00+18nw4443100 0.0 10071828
18:00+15wnw5558100 0.0 10091202
21:00+11w387967 0.0 1010439
20 may, thu
thu2000:00+8wnw2695100 0.0 1011160
03:00+7wnw3898100 0.0 1011183
06:00+7nw2395100 0.0 101281
09:00+13nnw3569100 0.0 1011535
12:00+16nnw4555100 0.1 10111404
15:00+16nnw5652100 0.1 10111395
18:00+13nw51062100 0.0 1010686
21:00+10nw41166100 0.0 1010520
21 may, fri
fri2100:00+8wnw41373100 0.0 1008555
03:00+7wnw41377100 0.0 1006487
06:00+8wnw51383100 0.0 1005509
09:00+10wnw51166100 0.0 1005796
12:00+13wnw795098 0.0 10061388
15:00+13w684899 0.0 10061646
18:00+12w5650100 0.0 10071533
21:00+9wsw48678 0.0 1007542